Regional Weather Roundup
Issued by NWS Grand Forks, ND

Home | Current Version | Previous Version | Graphics & Text | Print | Product List | Glossary On
Versions: 1 2 3 4 5 6 7 8 9 10 11 12 13 14 15 16 17 18 19 20 21 22 23 24 25 26 27 28 29 30 31 32 33 34 35 36 37 38 39 40 41 42 43 44 45 46 47 48 49 50
000
ASUS43 KFGF 252131
RWRFGF
PRAIRIE TO PINES  WEATHER ROUNDUP
NATIONAL WEATHER SERVICE EASTERN NORTH DAKOTA/GRAND FORKS ND
400 PM CDT SAT APR 25 2015

 **SATELLITE DATA USED TO AUGMENT SKY COVER AT AUTOMATED STATIONS**
 *****  WEATHER ACROSS EASTERN NORTH DAKOTA  *****

CITY           SKY/WX    TMP DP  RH WIND       PRES   REMARKS
GRAND FORKS    PTSUNNY   61  38  42 SE7G16    29.87S
GRAND FRKS AFB MOSUNNY   61  38  42 S8G18     29.88S
GRAND FRKS NWS   N/A     61 N/A N/A S7          N/A
DEVILS LAKE    CLOUDY    54  39  58 SE13      29.86S
FARGO          SUNNY     59  39  47 S12       29.87F
WAHPETON ARPT  CLOUDY    55  36  47 SE14      29.88R
$$

 ***** WEATHER ACROSS CENTRAL AND WESTERN NORTH DAKOTA  *****

CITY           SKY/WX    TMP DP  RH WIND       PRES   REMARKS
BISMARCK       CLOUDY    50  42  74 SE16      29.82S
MINOT          CLOUDY    57  39  51 E16       29.80S
JAMESTOWN      CLOUDY    48  40  73 SE14      29.86S
MINOT AFB      CLOUDY    57  42  58 SE18      29.79S
GARRISON         N/A     55  42  61 SE16      29.79S
WILLISTON      CLOUDY    54  43  66 SE14G25   29.74F
DICKINSON      CLOUDY    47  42  83 SE17      29.75R
HETTINGER      CLOUDY    47  43  86 SE13      29.76F FOG
$$

 *****  OTHER AIRPORT OBSERVATIONS IN OUR AREA  *****

CITY           SKY/WX    TMP DP  RH WIND       PRES   REMARKS
WALHALLA       FAIR      63  37  39 SE14G21   29.88S
GRAFTON AIRPOR FAIR      63  37  39 SE14G22   29.88S
VALLEY CITY AR MOCLDY    50  45  81 SE14      29.88R
CANDO          CLOUDY    54  39  58 SE13G20   29.88S
CAVALIER APRT  FAIR      63  37  39 S12G20    29.87S
GWINNER        CLOUDY    52  43  71 E13       29.89R
ROLLA          CLOUDY    54  37  54 S13G21    29.87S
 ***** THE ABOVE OBSERVATIONS ARE NON NWS ARE NOT QUALITY
       CONTROLLED AND MAY MIS-REPORT RAIN FOR SNOW...
$$

  *****  WEATHER ACROSS NORTHERN MINNESOTA  *****

CITY           SKY/WX    TMP DP  RH WIND       PRES   REMARKS
FLAG ISLAND    SUNNY     55  28  35 SE8       29.95R
WARROAD        SUNNY     55  30  38 NE13G20   29.94F
ROSEAU         SUNNY     61  30  31 E18       29.92S
HALLOCK        SUNNY     64  30  27 SE15G23   29.88S
THF RVR FALLS  MOSUNNY   61  34  36 E15       29.89S
BAUDETTE       SUNNY     60  29  30 E13       29.94S
WASKISH        MOSUNNY   63  34  34 NE10      29.91S
CROOKSTON      PTSUNNY   63  37  39 SE10      29.88S
$$
  *****  WEATHER ACROSS CENTRAL AND WEST MINNESOTA  *****

CITY           SKY/WX    TMP DP  RH WIND       PRES   REMARKS
FOSSTON        SUNNY     63  30  29 E9G16     29.90R
BEMIDJI        SUNNY     57  30  35 E9        29.91S
PARK RAPIDS    SUNNY     59  25  27 E12       29.89S
ELBOW LAKE     MOCLDY    55  40  58 E9        29.87R
WADENA         SUNNY     57  34  41 E15       29.88S
DETROIT LAKES  SUNNY     59  34  38 SE13      29.89R
MOORHEAD       MOSUNNY   61  37  41 SE13      29.88S
FERGUS FALLS   MOSUNNY   57  36  44 SE14      29.88S
MORRIS MN      MOSUNNY   57  41  54 SE12G17   29.85R
STAPLES        SUNNY     55  30  38 E7        29.89S
$$
  *****  WEATHER ELSEWHERE ACROSS MINNESOTA  *****

CITY           SKY/WX    TMP DP  RH WIND       PRES   REMARKS
DULUTH         MOSUNNY   48  20  32 E15G25    29.96S
INTRNTL FALLS  SUNNY     54  25  32 E13       29.96F
ELY            MOSUNNY   54  14  20 NE10G16   29.95S
CLOQUET        SUNNY     46  19  34 E16       29.96R
WHEATON        MOSUNNY   54  43  66 SE10      29.88S
BRAINERD       SUNNY     57  26  30 E10G22    29.90F
HIBBING        SUNNY     58  22  24 VRB7      29.92F
ALEXANDRIA     PTSUNNY   54  39  57 E13       29.88S
SAINT CLOUD    SUNNY     59  35  40 NE9       29.86F
MINNEAPOLIS    MOSUNNY   60  29  30 E14G24    29.84R
$$

  *****  WEATHER ACROSS SOUTH DAKOTA  *****

CITY           SKY/WX    TMP DP  RH WIND       PRES   REMARKS
SIOUX FALLS    PTSUNNY   60  42  51 E15       29.77F
BROOKINGS      CLOUDY    54  45  71 NE13      29.82R
WATERTOWN      MOSUNNY   53  41  63 E13       29.83S
HURON          CLOUDY    60  43  53 SE12G22   29.78S
SISSETON         N/A     49  42  77 SE9       29.86S
ABERDEEN       CLOUDY    51  42  71 E12G21    29.84S
MITCHELL       CLOUDY    59  48  67 E14       29.78F
PIERRE         CLOUDY    56  49  77 SE12      29.76S
MOBRIDGE       CLOUDY    53  44  71 SE12      29.78R
RAPID CITY     CLOUDY    51  46  83 SE13      29.72R
$$

  *****  SOME WEATHER IN NEARBY STATES *****

CITY           SKY/WX    TMP DP  RH WIND       PRES   REMARKS
GLASGOW MT     LGT RAIN  44  41  89 W8        29.75R FOG
GREAT FALLS MT CLOUDY    51  22  31 N7        29.80S
CHEYENNE WY    CLOUDY    61  28  28 S13G18    29.73S
SCOTTSBLUFF NE PTSUNNY   63  40  42 SW15G21   29.69R
OMAHA NE       CLOUDY    53  46  77 NE10      29.71R
DES MOINES IA  CLOUDY    50  45  83 NE14      29.71R
DAVENPORT IA   CLOUDY    49  41  74 E21G29    29.71R
CHICAGO IL     CLOUDY    47  40  76 E18G25    29.72S
EAU CLAIRE WI  MOSUNNY   61  19  19 E16G22    29.84R
LA CROSSE WI   CLOUDY    56  30  37 SE7       29.82S
$$

  *****  SOME NATIONAL WEATHER *****

CITY           SKY/WX    TMP DP  RH WIND       PRES   REMARKS
LA GUARDIA NY  PTSUNNY   59  21  23 W9        29.70F
RALEIGH NC     LGT RAIN  54  52  94 N7        29.72F VSB 1
ATLANTA GA     PTSUNNY   79  65  62 W14G21    29.69F
NEW ORLEANS LA LGT RAIN  72  67  84 S12       29.78F
OKLAHOMA CITY  MOSUNNY   83  50  31 W9        29.63F
ALBUQUERQUE NM PTSUNNY   67  27  22 SW8G17    29.83F
SALT LAKE CITY CLOUDY    57  36  45 SW6       29.67F
LOS ANGELES CA LGT RAIN  61  57  87 W21       29.96S
BOISE ID       PTSUNNY   58  26  29 NW13      29.77F
SEATTLE WA     PTSUNNY   54  33  45 SW6       29.99S
$$

*** WEATHER ACROSS MANITOBA...SASKATCHEWAN AND ONTARIO ***
                ***ONTARIO***

CITY           SKY/WX    TMP DP  RH WIND       PRES   REMARKS
GERALDTON      MOSUNNY   48  19  32 NE8       30.01F
THUNDER BAY    SUNNY     48  16  27 SE9       30.02F
SIOUX LOOKOUT  MOSUNNY   54  23  30 VRB8      30.01S
TORONTO        MOSUNNY   52  28  40 N13G20    29.81F
BIG TROUT LK   SUNNY     39  25  56 S6        30.15R
PICKLE LAKE    MOSUNNY   46  12  25 NE6       30.06S
DRYDEN         SUNNY     54  23  30 NE7       29.99F
KENORA         SUNNY     55  28  35 SE6       29.98S
$$
                *** MANITOBA***

CITY           SKY/WX    TMP DP  RH WIND       PRES   REMARKS
BRANDON        PTSUNNY   61  41  48 SE13G22   29.87S
DAUPHIN        MOSUNNY   57  37  47 E15G22    29.91R
ISLAND LAKE    PTSUNNY   54  18  24 SE7       30.07F
PILOT MOUND      N/A     57  37  47 SE16G23     N/A
THE PAS        PTSUNNY   34  28  80 N7        30.07S
THOMPSON       FLURRIES  32  28  86 N7        30.13R
WINNIPEG       MOSUNNY   63  36  36 SE9G23    29.92F
LYNN LAKE      SUNNY     39  10  30 N7        30.11S
CHURCHILL      CLOUDY    30  14  51 SE12      30.24R WCI  21
GILLAM         MOSUNNY   48  18  29 SE6G17    30.13R
$$
                ***SASKATCHEWAN***

CITY           SKY/WX    TMP DP  RH WIND       PRES   REMARKS
ESTEVAN        CLOUDY    50  41  71 E17G23    29.80S
KINDERSLEY     FLURRIES  34  28  80 NE15      29.88R WCI  24
LLOYDMINSTER   CLOUDY    36  18  48 NE14G20   29.96S
PRINCE ALBERT  LGT SNOW  34  30  86 NE14      30.00R WCI  24
REGINA         CLOUDY    45  43  93 SE17G23   29.79R
YORKTON        CLOUDY    46  36  66 NE14      29.87S
N. BATTLEFORD  LGT RAIN  37  30  75 NE10G17   29.96R
LA RONGE       PTSUNNY   41  12  30 NE8       30.10R
SASKATOON      LGT SNOW  30  28  93 NE20G30   29.91S VSB 3/4 WCI  18
SWIFT CURRENT  LGT RAIN  34  34 100 N10       29.79R VSB 1
$$
NOTE: THESE ARE AUTOMATED STATIONS WITH LIMITED QUALITY CONTROL
      "FAIR" INDICATES FEW OR NO CLOUDS BELOW 12,000 FEET WITH NO
      SIGNIFICANT WEATHER AND/OR OBSTRUCTIONS TO VISIBILITY.
      SKY/WX - SKY CONDITION AND SIGNIFICANT WEATHER.
      TMP - AIR TEMPERATURE.    DP   - DEWPOINT TEMPERATURE.
      RH  - RELATIVE HUMIDITY.  PRES - PRESSURE.
      HX  - HEAT INDEX.         WCI  - WIND CHILL INDEX.
$


USA.gov is the U.S. government's official web portal to all federal, state and local government web resources and services.